COSMOS 1275 DEB, 42210

Orbit data source: Space-Track

COSMOS 1275 DEB, 42210 is space debris in LEO originally from a launch on Thu, 04 Jun 1981 UTC launched from the Plesetsk Missile And Space Complex (PKMTR). Debris objects in space refer to the collection of defunct objects orbiting the Earth. Examples of debris include non-operational satellites, rocket bodies, and fragments generated from explosions, collisions, or faulty payload assembly.

Loading next visibility...
Identifier
42210, 1981-053UA
Orbit
LEO
Country
Flag of CISCIS
Related business
Manufacturer
Unknown
Mission
Spacecraft
Bus & Motor
Unknown
Mass
Unknown
Launch date (UTC)
1981-06-04 (44 years ago)
Launch vehicle
Unknown
Launch site
Plesetsk Missile And Space Complex (PKMTR)
Object type
Payload
Rocket body
Debris
Shape & HBR
Unknown shape, 0.1 m
Radar Cross Section
Small (<0.1 m²)

Expand to show TLE details & history
Last TLE update: 1 day ago

TLE from 1 day ago
0 COSMOS 1275 DEB
1 42210U 81053UA  25292.14430763  .00001184  00000-0  12546-2 0  9998
2 42210  83.0048  86.7999 0106721 314.0173 168.2303 13.71207480594383
Epoch: 2025-10-19T03:27Z
TLE epoch observation values (Epoch: 2025-10-19T03:27:48.179Z)
Latitude
56.93721°
Longitude
176.1757°
Altitude
1,081.86 km
Speed
7.278 km/s
True Right ascension
17h 03m 57s
True Declination
56° 47' 12"
Sunlit
Object was in daylight at epoch
Visualization orbit readout
Latitude
Unknown
Longitude
Unknown
Altitude
Unknown
Speed
Unknown
Apparent Right ascension
Unknown
Apparent Declination
Unknown
Sunlit
N/A
Visualization observer readout
Local Sidereal Time
00:58:57
Azimuth
Unknown
Elevation
Unknown
Doppler factor
Unknown
Orbital elements
Apogee altitude
1,071.049 km
Perigee altitude
913.731 km
Semi-major axis
7,370.527 km
Eccentricity
0.01067
Inclination
83.0048°
RAAN
86.7999°
Arg. of periapsis
314.0173°
True anomaly
168.47653°
Mean anomaly
168.2303°
Eccentric anomaly
168.35374°
Mean motion
3.43001 °/min
Orbital period
104.96 mins
BSTAR
0.0012546
Loading maneuver chart data...
Computing Atmospheric mass density...

Documentation

Showing up to 5 results
|